Flag for Germany Weather past 2 weeks in Neumünster, Schleswig-Holstein, Germany

Now
58 °F

Low clouds.


Feels Like: 58 °F
Forecast: 54 / 63 °F
Wind: 2 mph from West

Location: Itzehoe

Current Time: Aug 31, 2014 at 4:42:27 AM

Latest Report: Aug 31, 2014 at 4:00 AM


Visibility: 2 mi

Pressure: 29.88 "Hg

Humidity: 97%

Dew point: 58 °F

Location of NeumünsterLocation

Historic Weather in Neumünster — Graph

°F

Neumünster temperature yesterday

Maximum temperature yesterday: 65 °F (at 3:00 PM)
Minimum temperature yesterday: 56 °F (at 6:00 AM)
Average temperature yesterday: 59 °F

Past Weeks' High & Low Weather Summary

 TemperatureHumidityPressure
High73 °F (Aug 28, 4:00 PM)100% (Aug 28, 4:00 AM)30.05 "Hg (Aug 28, 4:00 AM)
Low39 °F (Aug 26, 7:00 AM)37% (Aug 28, 4:00 PM)29.44 "Hg (Aug 18, 9:00 AM)
Average56 °F83%29.85 "Hg
* Reported Aug 16 3:00 AM — Aug 31 3:00 AM, Neumünster, Weather by CustomWeather, © 2014

Note: Actual official high and low records may vary slightly from our data, if they occured in-between our weather recording intervals... More about our weather records

Advertising

Neumünster weather history for previous 24 hours

 ConditionsComfort  
Time TempWeatherWind HumidityBarometerVisibility
3:00 AM
Aug 31
58 °FOvercast.1 mph98%29.88 "Hg1 mi
1:00 AM58 °FLow clouds.1 mph97%29.90 "Hg2 mi
12:00 AM57 °FOvercast.2 mph95%29.90 "Hg5 mi
10:00 PM
Aug 30
57 °FOvercast.2 mph96%29.91 "Hg8 mi
9:00 PM58 °FClear.2 mph98%29.91 "Hg6 mi
7:00 PM58 °FFog.2 mph94%29.91 "Hg4 mi
6:00 PM62 °FOvercast.2 mph83%29.92 "Hg18 mi
4:00 PM65 °FPartly sunny.2 mph83%29.92 "Hg10 mi
3:00 PM65 °FOvercast.3 mph80%29.92 "Hg12 mi
1:00 PM62 °FLow clouds.3 mph90%29.93 "Hg7 mi
12:00 PM60 °FLow clouds.3 mph93%29.93 "Hg4 mi
10:00 AM61 °FOvercast.3 mph86%29.92 "Hg10 mi
9:00 AM61 °FOvercast.3 mph87%29.92 "Hg8 mi
7:00 AM57 °FOvercast.1 mph92%29.92 "Hg5 mi
6:00 AM56 °FOvercast.1 mph94%29.93 "Hg4 mi
4:00 AM57 °FOvercast.1 mph94%29.94 "Hg4 mi
Weather by CustomWeather, © 2014

See weather overviewHow to use our weather pages